[[{"header":{"parameterUnit":"m.s-1","parameterCategory":1,"la1":30.2991,"la2":30.254,"lo1":-89.0895,"lo2":-89.0444,"dy":0.0017,"dx":0.0017,"nx":28,"ny":28,"refTime":"2024-08-12T09:00:00:Z","depth":0,"parameterNumber":2,"parameterNumberName":"U-component_of_WINDS"},"data":[0,0,0,0,0,0,0,0,0,0,0,0,0,0,0,0,0,0,0,0,0,0,0,0,0,0,0,0,0,0,0,0,0,0,0,0,0,0,0,0,0,0,0,0,0,0,0,0,0,0,0,0,0,0,0,0,0,0,1.0458,1.0459,0,1.0533,1.0534,1.0535,1.051,1.0508,1.0506,1.0505,1.0585,1.0588,1.0592,0,0,0,0,0,0,0,0,0,0,0,0,0,1.0296,1.03,1.0458,1.0459,1.046,1.0533,1.0534,1.0535,1.051,1.0508,1.0506,1.0504,1.0584,1.0588,1.0592,0,0,0,0,0,0,0,0,0,0,0,0,0,1.0369,1.0301,1.0458,1.0456,1.0457,1.0533,1.0534,1.0536,1.051,1.0508,1.0505,1.0503,1.0582,1.0587,1.0593,1.0676,0,0,1.061,1.0612,0,0,0,0,0,0,0,0,1.0365,1.0375,1.0456,1.0457,1.0457,1.051,1.0506,1.0583,1.0511,1.049,1.0505,1.0502,1.0562,1.0569,1.0589,1.068,1.0683,1.061,1.0613,1.0616,1.0617,0,0,0,0,0,0,0,1.036,1.0371,1.0488,1.0457,1.0458,1.0453,1.046,1.0521,1.0539,1.0492,1.049,1.0499,1.0562,1.0583,1.059,1.0685,1.061,1.0615,1.0618,1.062,1.085,1.0853,0,0,0,0,0,0,1.0354,1.0367,1.0486,1.049,1.0404,1.0458,1.0466,1.0495,1.0538,1.0542,1.0501,1.0498,1.0575,1.0584,1.0593,1.0695,1.0616,1.0621,1.0624,1.0847,1.0851,1.0854,0,0,0,0,0,0,1.035,1.0365,1.0483,1.0428,1.0443,1.0463,1.0496,1.0498,1.0519,1.0545,1.0549,1.052,1.0574,1.0585,1.0656,1.0697,1.0623,1.0628,1.0844,1.0848,1.0852,1.0898,0,0,0,0,0,0,1.0346,1.0363,1.0395,1.0429,1.0446,1.0544,1.0499,1.0501,1.0529,1.0525,1.0564,1.0568,1.0572,1.0648,1.0661,1.0703,1.0633,1.084,1.0846,1.0851,1.0893,1.0903,1.0912,0,0,0,0,0,1.034,1.0405,1.0396,1.0411,1.0485,1.0546,1.0556,1.0559,1.0532,1.0564,1.0581,1.0566,1.069,1.0655,1.067,1.0715,1.0838,1.0844,1.085,1.0889,1.0901,1.0912,0,0,0,0,0,0,1.0375,1.0409,1.04,1.0478,1.0509,1.0541,1.0582,1.0572,1.0612,1.0607,1.0611,1.062,1.0693,1.071,1.0671,1.0798,1.076,1.077,1.0784,1.0796,1.0806,1.0801,1.0637,0,0,0,0,0,1.0392,1.0437,1.0465,1.0531,1.0547,1.0562,1.0588,1.0588,1.0621,1.0635,1.0657,1.069,1.0737,1.0767,1.0811,1.0895,1.0904,1.0933,1.0943,1.095,1.0959,1.1006,1.102,1.0874,1.0874,1.0874,0,0,1.0427,1.0451,1.048,1.0538,1.0563,1.0611,1.0573,1.0625,1.0662,1.0643,1.0711,1.0728,1.0766,1.0844,1.088,1.0861,1.1001,1.0958,1.0964,1.0969,1.1014,1.1028,1.104,1.0879,1.0878,1.0877,0,0,1.0516,1.0538,1.0596,1.0621,1.0658,1.0667,1.0681,1.0716,1.0726,1.0794,1.0782,1.0825,1.0905,1.0933,1.0957,1.1057,1.1046,1.1072,1.1122,1.1168,1.118,1.119,1.1227,1.124,1.108,1.108,1.108,0,1.0555,1.0626,1.0627,1.0681,1.0708,1.0692,1.0752,1.0776,1.0826,1.0846,1.0824,1.0924,1.0949,1.1034,1.1058,1.1078,1.1095,1.1068,1.1178,1.1188,1.1198,1.1233,1.1247,1.1083,1.1083,1.1083,1.1082,0,1.0674,1.0723,1.0766,1.0814,1.0845,1.0902,1.0913,1.0945,1.0942,1.0954,1.1025,1.1053,1.1104,1.1123,1.1121,1.1209,1.1196,1.1176,1.1138,1.1215,1.1248,1.1262,1.1087,1.1086,1.1085,1.1085,0,0,1.0787,1.0835,1.0851,1.0873,1.0913,1.0952,1.1008,1.1057,1.1085,1.112,1.1168,1.1236,1.1218,1.1246,1.1247,1.1287,1.1367,1.1263,1.1264,1.1282,1.1467,1.1482,1.1498,1.1359,1.1362,1.1364,1.1464,0,1.088,1.0978,1.0981,1.1072,1.1119,1.1104,1.1154,1.1184,1.1197,1.124,1.1255,1.1303,1.1275,1.1292,1.1331,1.1349,1.1404,1.1341,1.1406,1.1408,1.1398,1.1515,1.1532,1.1625,1.1477,1.1479,1.1481,0,1.1002,1.1041,1.1136,1.117,1.119,1.1234,1.1279,1.1319,1.1354,1.1361,1.1392,1.1388,1.1447,1.1406,1.1488,1.1446,1.1472,1.1485,1.1489,1.1496,1.145,1.1527,1.1655,1.167,1.1501,1.1499,1.1498,0,1.1077,1.1153,1.122,1.1239,1.128,1.1312,1.1331,1.1363,1.1392,1.1432,1.1451,1.1498,1.1523,1.156,1.1569,1.1538,1.1652,1.1611,1.166,1.166,1.1686,1.1684,1.1821,1.1701,1.17,1.17,1.17,0,1.1182,1.1241,1.1254,1.1296,1.1362,1.1365,1.1431,1.1447,1.1476,1.1522,1.1512,1.1555,1.1563,1.1608,1.1615,1.1683,1.1695,1.1703,1.1704,1.1705,1.1704,1.1723,1.1717,1.1704,1.1703,1.1702,1.1702,0,1.1278,1.1289,1.1361,1.1394,1.1404,1.1451,1.148,1.152,1.1532,1.159,1.1603,1.1623,1.1675,1.1687,1.175,1.1754,1.1836,1.183,1.1824,1.1824,1.1873,1.1869,1.2028,1.205,1.1914,1.1915,1.1916,0,1.1344,1.139,1.1427,1.1457,1.1477,1.1524,1.1554,1.1559,1.1591,1.1634,1.167,1.1721,1.1762,1.1847,1.1868,1.1916,1.1912,1.1965,1.192,1.1919,1.1915,1.1913,1.1918,1.1974,1.1975,1.1977,1.1977,0,1.1462,1.1466,1.1508,1.1554,1.1589,1.1625,1.166,1.1685,1.1695,1.1731,1.1784,1.1816,1.188,1.1932,1.198,1.2001,1.1992,1.1991,1.2006,1.2007,1.2002,1.2007,1.1849,1.1988,1.1987,1.1986,1.1986,1.1985,1.1547,1.1586,1.162,1.1668,1.1694,1.1727,1.1767,1.1783,1.1828,1.188,1.188,1.1939,1.1974,1.2038,1.2061,1.2108,1.2092,1.2112,1.2117,1.2123,1.2128,1.1993,1.2116,1.2116,1.2116,1.2116,1.2115,0,1.1665,1.1686,1.173,1.1778,1.1817,1.1804,1.1841,1.1875,1.1926,1.1959,1.2,1.2062,1.2112,1.2136,1.2186,1.2219,1.2217,1.2233,1.2231,1.2236,1.2139,1.2122,1.2234,1.2234,1.2234,1.2234,1.2234,1.2234,1.1731,1.1799,1.1806,1.1887,1.1907,1.1964,1.1987,1.2018,1.2044,1.2113,1.2155,1.217,1.22,1.2252,1.2298,1.2304,1.2323,1.2342,1.2346,1.2255,1.2243,1.2231,1.2216,1.2346,1.2346,1.244,1.244,1.2441]},{"header":{"parameterUnit":"m.s-1","parameterCategory":1,"la1":30.2991,"la2":30.254,"lo1":-89.0895,"lo2":-89.0444,"dy":0.0017,"dx":0.0017,"nx":28,"ny":28,"refTime":"2024-08-12T09:00:00:Z","depth":0,"parameterNumber":3,"parameterNumberName":"V-component_of_WINDS"},"data":[0,0,0,0,0,0,0,0,0,0,0,0,0,0,0,0,0,0,0,0,0,0,0,0,0,0,0,0,0,0,0,0,0,0,0,0,0,0,0,0,0,0,0,0,0,0,0,0,0,0,0,0,0,0,0,0,0,0,0.604,0.6041,0,0.6128,0.6129,0.6129,0.614,0.6139,0.6139,0.6138,0.6225,0.6228,0.6231,0,0,0,0,0,0,0,0,0,0,0,0,0,0.5877,0.588,0.604,0.6041,0.6042,0.6127,0.6129,0.613,0.614,0.6139,0.6138,0.6137,0.6224,0.6228,0.6231,0,0,0,0,0,0,0,0,0,0,0,0,0,0.5955,0.5881,0.604,0.6058,0.606,0.6127,0.6129,0.613,0.6141,0.6139,0.6138,0.6137,0.6223,0.6227,0.6232,0.6286,0,0,0.6246,0.6248,0,0,0,0,0,0,0,0,0.595,0.5961,0.6054,0.6057,0.6059,0.6122,0.6103,0.6182,0.6141,0.611,0.6138,0.6136,0.6191,0.6199,0.6218,0.629,0.6294,0.6247,0.6249,0.6251,0.6253,0,0,0,0,0,0,0,0.5945,0.5957,0.6074,0.6055,0.6059,0.606,0.607,0.6118,0.6157,0.6113,0.6114,0.6124,0.6193,0.6213,0.622,0.6295,0.6246,0.6251,0.6253,0.6255,0.6413,0.6414,0,0,0,0,0,0,0.5937,0.5952,0.6072,0.6077,0.6001,0.6064,0.6075,0.6103,0.6156,0.6163,0.6125,0.6124,0.6206,0.6214,0.6223,0.6288,0.6251,0.6256,0.6258,0.6411,0.6413,0.6414,0,0,0,0,0,0,0.5933,0.5947,0.6068,0.6015,0.6031,0.6068,0.61,0.6105,0.6126,0.6166,0.6172,0.6139,0.6205,0.6216,0.627,0.6291,0.6258,0.6262,0.641,0.6412,0.6414,0.6419,0,0,0,0,0,0,0.5928,0.5946,0.5968,0.6015,0.6033,0.6115,0.6101,0.6108,0.6134,0.6134,0.6181,0.6187,0.6205,0.6263,0.6274,0.6297,0.6266,0.6408,0.6411,0.6413,0.6417,0.6421,0.6424,0,0,0,0,0,0.5923,0.5966,0.5969,0.5984,0.6062,0.6116,0.6126,0.6147,0.6136,0.6158,0.6182,0.6186,0.6287,0.6268,0.6281,0.6305,0.6407,0.641,0.6413,0.6415,0.642,0.6424,0,0,0,0,0,0,0.5921,0.5973,0.5977,0.6038,0.6072,0.6118,0.6146,0.6152,0.619,0.6188,0.6211,0.6221,0.6273,0.6294,0.6273,0.6359,0.6345,0.6351,0.6343,0.6348,0.6351,0.6344,0.627,0,0,0,0,0,0.5927,0.5968,0.6011,0.606,0.6078,0.6109,0.6133,0.6146,0.6182,0.6197,0.6226,0.626,0.6299,0.6325,0.6363,0.642,0.6429,0.6443,0.6446,0.6449,0.6454,0.6482,0.6488,0.6425,0.6425,0.6424,0,0,0.5942,0.5975,0.5999,0.6061,0.6089,0.6129,0.6121,0.6164,0.6193,0.6203,0.6255,0.6277,0.6317,0.6371,0.6396,0.6391,0.6473,0.6453,0.6455,0.6458,0.6486,0.6492,0.6497,0.6427,0.6426,0.6426,0,0,0.5987,0.6018,0.6061,0.6089,0.6132,0.6152,0.6162,0.6206,0.6221,0.6274,0.6281,0.6315,0.6383,0.641,0.6433,0.6485,0.6488,0.6497,0.6515,0.6543,0.6548,0.6552,0.6569,0.6575,0.6501,0.6501,0.6501,0,0.5999,0.6061,0.6082,0.6124,0.615,0.616,0.6203,0.6229,0.6282,0.6298,0.6291,0.6374,0.6402,0.6461,0.6474,0.6493,0.6503,0.6492,0.6546,0.655,0.6555,0.6571,0.6577,0.6502,0.6502,0.6502,0.6502,0,0.6072,0.6114,0.6143,0.6194,0.6223,0.6265,0.6291,0.6317,0.6326,0.6346,0.6397,0.643,0.6474,0.6489,0.6499,0.6549,0.6544,0.6541,0.6528,0.6561,0.6576,0.6583,0.6503,0.6503,0.6503,0.6502,0,0,0.6121,0.6181,0.6191,0.6212,0.6259,0.6291,0.6332,0.6376,0.6396,0.6432,0.6465,0.6521,0.6518,0.6543,0.6556,0.658,0.6616,0.6574,0.6575,0.6579,0.667,0.6671,0.6678,0.6618,0.662,0.6621,0.6666,0,0.617,0.6245,0.6264,0.6327,0.6364,0.6373,0.6408,0.644,0.6459,0.6492,0.6513,0.6551,0.6545,0.656,0.6584,0.6607,0.6634,0.6604,0.6648,0.6649,0.6636,0.6686,0.6688,0.6729,0.6672,0.6673,0.6674,0,0.6239,0.6275,0.6341,0.638,0.6397,0.6429,0.6468,0.65,0.6535,0.6547,0.6574,0.6583,0.6624,0.6609,0.6663,0.6642,0.6661,0.6674,0.6676,0.668,0.6663,0.669,0.6743,0.6748,0.6684,0.6683,0.6682,0,0.6265,0.633,0.6378,0.6396,0.6444,0.6465,0.6485,0.6519,0.6542,0.6576,0.6591,0.663,0.665,0.6678,0.6697,0.6685,0.6749,0.6736,0.6758,0.6757,0.6771,0.677,0.6826,0.6785,0.6785,0.6785,0.6785,0,0.6318,0.6357,0.6389,0.6419,0.6462,0.6483,0.6525,0.6545,0.6574,0.6606,0.6616,0.6645,0.6668,0.67,0.6714,0.6756,0.6766,0.6775,0.6778,0.6773,0.6772,0.6785,0.6782,0.6787,0.6786,0.6786,0.6786,0,0.6354,0.6378,0.6429,0.6469,0.648,0.651,0.6543,0.6571,0.6589,0.6629,0.6639,0.6668,0.6705,0.6726,0.6774,0.6783,0.6829,0.6831,0.6817,0.6818,0.6838,0.6835,0.6904,0.6913,0.6868,0.6868,0.6868,0,0.6386,0.6416,0.6459,0.6481,0.6502,0.6537,0.6561,0.6581,0.6605,0.6645,0.6667,0.6705,0.6736,0.6795,0.6819,0.6854,0.6857,0.6878,0.6862,0.6855,0.6854,0.6852,0.6854,0.6881,0.6881,0.6881,0.6882,0,0.6439,0.6448,0.6483,0.652,0.6548,0.6579,0.6609,0.6626,0.6651,0.6677,0.6715,0.674,0.6787,0.6824,0.686,0.6879,0.6884,0.6887,0.6893,0.6888,0.6878,0.6882,0.6823,0.6885,0.6885,0.6884,0.6884,0.6884,0.6473,0.6499,0.6532,0.6569,0.6594,0.6621,0.6648,0.6669,0.6702,0.6742,0.6752,0.6791,0.6822,0.6872,0.6891,0.6921,0.6917,0.6927,0.693,0.6931,0.6931,0.6874,0.6928,0.6928,0.6928,0.6928,0.6928,0,0.6524,0.6546,0.658,0.6621,0.6649,0.6652,0.6684,0.6708,0.6743,0.6771,0.6801,0.6844,0.6878,0.6904,0.6939,0.6958,0.696,0.6966,0.6964,0.6968,0.6934,0.6924,0.6963,0.6963,0.6963,0.6963,0.6963,0.6963,0.6554,0.6598,0.6611,0.6666,0.6687,0.6727,0.6745,0.6769,0.6791,0.6838,0.6867,0.6884,0.691,0.6947,0.6978,0.6984,0.6996,0.7001,0.7007,0.6975,0.6971,0.6967,0.6958,0.7004,0.7004,0.7039,0.7039,0.704]}]]